ラーセン彗星

280P/Larsen (2023)

English version
Home page
Updated on April 23, 2023

---------------------------------------------------------------------

・ プロフィール

・ 軌道要素

Epoch 2023 Feb. 25.0 TT = JDT 2460000.5
T 2023 Aug. 4.75864 TT                                  Rudenko
q   2.6401013            (2000.0)            P               Q
n   0.10222163     Peri.  104.74527     -0.54203423     +0.82629767
a   4.5300970      Node   131.38576     -0.82794258     -0.49390012
e   0.4172087      Incl.   11.77221     -0.14390962     -0.27073019
P   9.64
>From 183 observations 2004 Apr. 19-2023 Mar. 27, mean residual 0".8.

・ 光度変化

        m1 = 16.0 + 5 logΔ + 10.0 log r

        ※ 灰色の曲線は、m1 = 3 + 5 logΔ + 30 log r(t + 150) の光度曲線です。

---------------------------------------------------------------------

軌道要素はM.P.E.C. 2023-G31に掲載されたものです。
光度グラフはComet for Windowsで作成したものです。

---------------------------------------------------------------------

Copyright(C) Seiichi Yoshida (comet@aerith.net). All rights reserved.